Location: Alto Pass Reservoir
(37.5801°N, 89.3084°W)
Time: 20:06:08
(UTC+00:00)

Meteor 2-6 Rocket - Pass Details

Date: 08 December 2021
Orbit: 805 x 915 km, 81.3° (Epoch: 17 January)

Event Time Altitude Azimuth Distance (km) Brightness Sun altitude
Rises 23:42:19 0° 188° (S) 3,477 7.8 -12.3°
Reaches altitude 10° 23:44:47 10° 189° (S) 2,527 7.1 -12.8°
Maximum altitude 23:50:32 85° 278° (W) 869 4.3 -13.9°
Drops below altitude 10° 23:56:09 10° 8° (N) 2,467 6.4 -14.9°
Sets 23:58:32 0° 9° (N) 3,390 7.1 -15.4°
